Simultaneous Nadir Overpasses (SNOs) Predictions

Prediction of SNOs between LANDSAT-8 and NOAA-19 Satellite Orbit:

Table of predicted SNOs for the next 14.0 days since TLE Epoch: 5/12/2017
Index Date (LANDSAT-8) Time (LANDSAT-8) Lat,Lon (LANDSAT-8) SZA (LANDSAT-8 ) Date (NOAA-19) Time (NOAA-19) Lat,Lon (NOAA-19) SZA (NOAA-19 ) Distance(km) Time Diff (sec)
1 05/13/2017 13:37:37 76.09, -15.97 57.70 05/13/2017 13:36:53 76.10, -15.82 57.71 4.11 44
2 05/13/2017 14:27:05 -76.06, 151.58 122.34 05/13/2017 14:27:57 -76.04, 151.59 122.35 1.91 52
3 05/15/2017 19:11:23 -76.12, 80.68 122.80 05/15/2017 19:10:48 -76.11, 80.69 122.81 0.49 35
4 05/15/2017 20:00:50 76.05,-111.89 57.12 05/15/2017 20:01:43 76.06,-111.84 57.14 1.56 53
5 05/18/2017 00:45:07 76.15, 177.36 56.74 05/18/2017 00:44:34 76.14, 177.21 56.72 3.96 33
6 05/18/2017 01:34:36 -76.08, -15.23 123.35 05/18/2017 01:35:38 -76.07, -15.31 123.35 2.17 62
7 05/20/2017 06:18:53 -76.13, -86.14 123.77 05/20/2017 06:18:27 -76.11, -86.08 123.79 3.09 26
8 05/20/2017 07:08:20 76.06, 81.28 56.15 05/20/2017 07:09:22 76.07, 81.35 56.17 1.94 62
9 05/22/2017 11:52:37 76.16, 10.50 55.82 05/22/2017 11:52:13 76.15, 10.38 55.80 3.28 24
10 05/22/2017 12:42:06 -76.09, 177.93 124.27 05/22/2017 12:43:17 -76.08, 177.88 124.27 1.89 71
11 05/24/2017 17:26:24 -76.14, 107.00 124.63 05/24/2017 17:26:07 -76.12, 107.07 124.64 2.38 17
12 05/24/2017 18:15:51 76.06, -85.59 55.28 05/24/2017 18:17:02 76.08, -85.50 55.32 3.16 71




NCC Satellite Simultaneous Nadir Overpasses (SNOs) Prediction Service
